[[{"header":{"parameterUnit":"m.s-1","parameterCategory":1,"la1":30.2991,"la2":30.254,"lo1":-89.0895,"lo2":-89.0444,"dy":0.0017,"dx":0.0017,"nx":28,"ny":28,"refTime":"2023-07-17T21:00:00:Z","depth":0,"parameterNumber":2,"parameterNumberName":"U-component_of_WINDS"},"data":[0,0,0,0,0,0,0,0,0,0,0,0,0,0,0,0,0,0,0,0,0,0,0,0,0,0,0,0,0,0,0,0,0,0,0,0,0,0,0,0,0,0,0,0,0,0,0,0,0,0,0,0,0,0,0,0,0,0,1.2234,1.2235,0,1.2305,1.2306,1.2307,1.2315,1.2314,1.2314,1.2313,1.2384,1.2386,1.2389,0,0,0,0,0,0,0,0,0,0,0,0,0,1.2102,1.2105,1.2234,1.2235,1.2236,1.2305,1.2306,1.2307,1.2315,1.2314,1.2313,1.2313,1.2383,1.2386,1.2389,0,0,0,0,0,0,0,0,0,0,0,0,0,1.2165,1.2106,1.2234,1.2248,1.225,1.2305,1.2306,1.2307,1.2315,1.2314,1.2313,1.2312,1.2382,1.2386,1.2389,1.2434,0,0,1.2401,1.2402,0,0,0,0,0,0,0,0,1.2161,1.217,1.2245,1.2247,1.225,1.23,1.2285,1.2349,1.2315,1.229,1.2313,1.2312,1.2357,1.2362,1.2378,1.2437,1.244,1.2401,1.2403,1.2405,1.2406,0,0,0,0,0,0,0,1.2157,1.2167,1.2262,1.2246,1.2249,1.225,1.2258,1.2298,1.2328,1.2293,1.2293,1.2302,1.2358,1.2374,1.238,1.2441,1.2401,1.2404,1.2407,1.2408,1.2538,1.254,0,0,0,0,0,0,1.215,1.2163,1.226,1.2264,1.2202,1.2253,1.2262,1.2285,1.2328,1.2334,1.2303,1.2302,1.2368,1.2375,1.2382,1.2436,1.2405,1.2409,1.2411,1.2537,1.2539,1.254,0,0,0,0,0,0,1.2148,1.2159,1.2257,1.2214,1.2226,1.2257,1.2282,1.2287,1.2304,1.2336,1.2341,1.2314,1.2368,1.2377,1.2421,1.2439,1.241,1.2414,1.2536,1.2538,1.2539,1.2545,0,0,0,0,0,0,1.2144,1.2158,1.2176,1.2214,1.2229,1.2295,1.2283,1.2289,1.231,1.231,1.2348,1.2353,1.2368,1.2415,1.2424,1.2443,1.2417,1.2534,1.2537,1.2539,1.2543,1.2546,1.2549,0,0,0,0,0,1.2139,1.2174,1.2177,1.2188,1.2252,1.2296,1.2304,1.2321,1.2312,1.2329,1.235,1.2352,1.2435,1.2419,1.243,1.245,1.2533,1.2536,1.2539,1.2542,1.2546,1.2549,0,0,0,0,0,0,1.2136,1.218,1.2183,1.2232,1.226,1.2297,1.232,1.2325,1.2356,1.2354,1.2373,1.2381,1.2424,1.2442,1.2423,1.2495,1.2483,1.2488,1.2482,1.2486,1.2489,1.2484,1.242,0,0,0,0,0,1.2142,1.2175,1.221,1.225,1.2264,1.229,1.2309,1.232,1.235,1.2362,1.2385,1.2414,1.2446,1.2467,1.2499,1.2546,1.2553,1.2565,1.2568,1.257,1.2574,1.2599,1.2605,1.2549,1.2549,1.2549,0,0,1.2152,1.218,1.22,1.225,1.2273,1.2306,1.23,1.2335,1.2359,1.2367,1.241,1.2428,1.2461,1.2506,1.2527,1.2522,1.2591,1.2574,1.2576,1.2578,1.2603,1.2608,1.2613,1.2551,1.255,1.255,0,0,1.2189,1.2214,1.2249,1.2272,1.2308,1.2325,1.2333,1.237,1.2382,1.2426,1.2432,1.246,1.2516,1.2539,1.2558,1.2602,1.2605,1.2612,1.2628,1.2653,1.2657,1.2661,1.2676,1.2681,1.2616,1.2616,1.2616,0,1.2198,1.2248,1.2266,1.2301,1.2323,1.2332,1.2367,1.2388,1.2432,1.2446,1.244,1.251,1.2533,1.2583,1.2594,1.2609,1.2618,1.2608,1.2655,1.2659,1.2663,1.2678,1.2683,1.2617,1.2616,1.2616,1.2616,0,1.2257,1.2292,1.2316,1.2359,1.2383,1.2418,1.244,1.2462,1.247,1.2487,1.253,1.2558,1.2595,1.2607,1.2615,1.2658,1.2654,1.2651,1.264,1.2669,1.2683,1.2688,1.2617,1.2617,1.2617,1.2617,0,0,1.2294,1.2346,1.2354,1.2373,1.2413,1.244,1.2474,1.2511,1.2529,1.2559,1.2588,1.2635,1.2632,1.2654,1.2664,1.2685,1.2718,1.268,1.2681,1.2685,1.2766,1.2767,1.2773,1.272,1.2721,1.2722,1.2763,0,1.2334,1.2397,1.2414,1.2467,1.2499,1.2508,1.2538,1.2565,1.2581,1.261,1.2628,1.2661,1.2655,1.2668,1.269,1.2709,1.2734,1.2707,1.2746,1.2747,1.2737,1.2781,1.2783,1.282,1.2768,1.2769,1.277,0,1.239,1.2421,1.2478,1.2513,1.2527,1.2553,1.2588,1.2616,1.2646,1.2657,1.268,1.2689,1.2724,1.2711,1.2759,1.274,1.2757,1.2769,1.2771,1.2775,1.276,1.2785,1.2832,1.2837,1.2779,1.2778,1.2777,0,1.241,1.2466,1.2507,1.2523,1.2565,1.2584,1.2602,1.2631,1.2652,1.2682,1.2695,1.2729,1.2747,1.2772,1.2789,1.2778,1.2836,1.2824,1.2845,1.2844,1.2856,1.2855,1.2906,1.2868,1.2868,1.2868,1.2868,0,1.2453,1.2487,1.2517,1.2542,1.258,1.2598,1.2635,1.2653,1.2679,1.2707,1.2716,1.2742,1.2763,1.2792,1.2805,1.2842,1.2851,1.2859,1.2862,1.2858,1.2857,1.2869,1.2867,1.2869,1.2869,1.2869,1.2868,0,1.2481,1.2503,1.2548,1.2584,1.2594,1.262,1.2651,1.2675,1.2691,1.2727,1.2736,1.2762,1.2796,1.2815,1.2858,1.2867,1.2908,1.291,1.2898,1.2899,1.2918,1.2916,1.2978,1.2987,1.2944,1.2944,1.2944,0,1.2507,1.2533,1.2573,1.2592,1.2611,1.2643,1.2664,1.2683,1.2705,1.2741,1.276,1.2795,1.2823,1.2877,1.2899,1.2931,1.2934,1.2953,1.2939,1.2933,1.2933,1.2931,1.2933,1.2956,1.2956,1.2956,1.2957,0,1.255,1.2559,1.259,1.2625,1.265,1.2678,1.2706,1.2721,1.2744,1.2768,1.2803,1.2825,1.2869,1.2903,1.2937,1.2954,1.2959,1.2961,1.2967,1.2963,1.2955,1.2959,1.2904,1.296,1.2959,1.2959,1.2959,1.2959,1.2577,1.2601,1.2632,1.2666,1.2689,1.2714,1.2739,1.2759,1.2789,1.2826,1.2835,1.2872,1.29,1.2947,1.2965,1.2993,1.299,1.2999,1.3001,1.3003,1.3003,1.2951,1.3,1.3,1.2999,1.2999,1.2999,0,1.262,1.2641,1.2672,1.271,1.2737,1.274,1.277,1.2792,1.2824,1.2851,1.2879,1.2919,1.2952,1.2976,1.3009,1.3027,1.303,1.3035,1.3034,1.3037,1.3005,1.2996,1.3032,1.3032,1.3032,1.3032,1.3032,1.3032,1.2645,1.2685,1.2698,1.2749,1.2769,1.2806,1.2823,1.2846,1.2867,1.2912,1.2939,1.2955,1.2981,1.3016,1.3046,1.3052,1.3063,1.3068,1.3074,1.3043,1.304,1.3036,1.3028,1.307,1.3071,1.3105,1.3105,1.3105]},{"header":{"parameterUnit":"m.s-1","parameterCategory":1,"la1":30.2991,"la2":30.254,"lo1":-89.0895,"lo2":-89.0444,"dy":0.0017,"dx":0.0017,"nx":28,"ny":28,"refTime":"2023-07-17T21:00:00:Z","depth":0,"parameterNumber":3,"parameterNumberName":"V-component_of_WINDS"},"data":[0,0,0,0,0,0,0,0,0,0,0,0,0,0,0,0,0,0,0,0,0,0,0,0,0,0,0,0,0,0,0,0,0,0,0,0,0,0,0,0,0,0,0,0,0,0,0,0,0,0,0,0,0,0,0,0,0,0,4.6642,4.6641,0,4.6537,4.6536,4.6535,4.6442,4.6441,4.644,4.6439,4.6325,4.6323,4.6321,0,0,0,0,0,0,0,0,0,0,0,0,0,4.6756,4.6754,4.6642,4.664,4.6639,4.6537,4.6536,4.6534,4.6442,4.6441,4.644,4.6438,4.6326,4.6323,4.6321,0,0,0,0,0,0,0,0,0,0,0,0,0,4.6684,4.6754,4.6642,4.6581,4.6575,4.6538,4.6536,4.6534,4.6442,4.6441,4.6439,4.6438,4.6327,4.6324,4.6321,4.6333,0,0,4.6311,4.631,0,0,0,0,0,0,0,0,4.6689,4.668,4.6591,4.6585,4.6578,4.6501,4.6534,4.6466,4.6443,4.6492,4.6439,4.6437,4.6385,4.6377,4.636,4.6328,4.6323,4.6311,4.6309,4.6308,4.6307,0,0,0,0,0,0,0,4.6694,4.6684,4.66,4.659,4.6582,4.6557,4.6545,4.6521,4.6448,4.6488,4.6481,4.647,4.638,4.6363,4.6357,4.6322,4.6311,4.6308,4.6306,4.6305,4.6294,4.6296,0,0,0,0,0,0,4.6709,4.6689,4.6603,4.6597,4.6631,4.6556,4.6543,4.6527,4.6448,4.6435,4.6472,4.6466,4.6369,4.6361,4.6353,4.6362,4.6308,4.6305,4.6303,4.6293,4.6295,4.6296,0,0,0,0,0,0,4.6712,4.6702,4.6608,4.6641,4.6627,4.6556,4.6539,4.6526,4.6509,4.6436,4.6422,4.6468,4.6368,4.6357,4.6339,4.6357,4.6304,4.6301,4.6291,4.6293,4.6295,4.6382,0,0,0,0,0,0,4.6715,4.6704,4.6709,4.6642,4.6626,4.6598,4.654,4.6525,4.6505,4.6497,4.6429,4.6416,4.6366,4.6344,4.6336,4.6352,4.6298,4.6289,4.6292,4.6295,4.6378,4.6387,4.6396,0,0,0,0,0,4.672,4.6736,4.671,4.67,4.6632,4.66,4.659,4.6533,4.6507,4.651,4.6464,4.6418,4.6357,4.6343,4.6333,4.6348,4.6287,4.6291,4.6294,4.6373,4.6385,4.6396,0,0,0,0,0,0,4.6805,4.6726,4.6696,4.6692,4.6654,4.6584,4.6587,4.6548,4.6514,4.6508,4.6437,4.6422,4.6413,4.6378,4.6365,4.6356,4.6316,4.6318,4.6379,4.639,4.6399,4.6407,4.6296,0,0,0,0,0,4.6824,4.6807,4.6738,4.6741,4.6723,4.6659,4.6643,4.6603,4.6559,4.6542,4.6493,4.6451,4.6422,4.6404,4.6373,4.6372,4.6356,4.6377,4.6387,4.6395,4.6397,4.6393,4.6402,4.6308,4.6308,4.6308,0,0,4.6862,4.6817,4.681,4.6757,4.6722,4.6704,4.6646,4.6629,4.6614,4.6538,4.6519,4.6483,4.643,4.6422,4.6415,4.6393,4.6419,4.6399,4.6406,4.6403,4.6398,4.6407,4.6415,4.631,4.631,4.6309,0,0,4.6922,4.6886,4.6885,4.6852,4.6801,4.6758,4.6758,4.6695,4.6668,4.6649,4.6592,4.6572,4.6524,4.6489,4.6465,4.6512,4.6469,4.6504,4.6551,4.6549,4.6556,4.6563,4.6579,4.6586,4.6506,4.6507,4.6507,0,4.6974,4.6947,4.6889,4.6876,4.6854,4.6787,4.6784,4.6754,4.6695,4.668,4.6657,4.6595,4.6555,4.6537,4.6549,4.6532,4.6528,4.6511,4.656,4.6566,4.6571,4.6586,4.6592,4.6511,4.6511,4.651,4.651,0,4.7014,4.6996,4.7,4.6948,4.6926,4.6919,4.6858,4.6842,4.6804,4.6764,4.6744,4.6694,4.6652,4.6645,4.6606,4.6621,4.6609,4.6574,4.6532,4.6586,4.6598,4.6604,4.6518,4.6516,4.6515,4.6514,0,0,4.7124,4.7041,4.7043,4.7019,4.6958,4.6942,4.693,4.6891,4.688,4.6841,4.6829,4.679,4.6758,4.673,4.6687,4.6685,4.6726,4.665,4.6648,4.6666,4.6739,4.6766,4.6773,4.6697,4.6698,4.6699,4.6743,0,4.7174,4.7152,4.7099,4.7093,4.7075,4.7011,4.7001,4.6962,4.6924,4.6901,4.6858,4.6832,4.6791,4.6774,4.6769,4.6722,4.674,4.6718,4.6684,4.6683,4.6699,4.678,4.6808,4.6852,4.6748,4.6748,4.6749,0,4.7228,4.7197,4.719,4.713,4.7121,4.7113,4.7073,4.7053,4.7007,4.6979,4.695,4.6903,4.6886,4.6847,4.6822,4.6809,4.6791,4.6766,4.6766,4.676,4.6719,4.6776,4.6865,4.6872,4.6756,4.6756,4.6755,0,4.7309,4.7264,4.7254,4.7235,4.7166,4.7162,4.7132,4.7085,4.7065,4.703,4.7016,4.6978,4.6957,4.6928,4.6872,4.6849,4.6853,4.6809,4.6828,4.6829,4.6831,4.6831,4.6918,4.682,4.682,4.682,4.682,0,4.737,4.7368,4.729,4.7284,4.7279,4.7218,4.7215,4.7179,4.7137,4.7121,4.7063,4.7049,4.6976,4.6953,4.6908,4.6894,4.6885,4.6861,4.6849,4.6866,4.6869,4.6853,4.6848,4.6822,4.6821,4.6821,4.6821,0,4.7459,4.7407,4.7392,4.7329,4.7313,4.7312,4.7256,4.7247,4.7206,4.7187,4.7179,4.7113,4.7083,4.7025,4.6978,4.6948,4.6943,4.6922,4.6959,4.6952,4.6973,4.6972,4.7052,4.706,4.6959,4.696,4.6961,0,4.7502,4.7499,4.7436,4.7423,4.7396,4.7375,4.7355,4.7294,4.7276,4.7223,4.722,4.7186,4.7156,4.7111,4.7057,4.7021,4.6999,4.7029,4.6993,4.701,4.6999,4.7,4.6999,4.7038,4.7039,4.704,4.7041,0,4.7582,4.7556,4.7531,4.7498,4.7476,4.7446,4.7412,4.7404,4.7335,4.7316,4.7287,4.7263,4.7217,4.7183,4.7139,4.7106,4.7062,4.7053,4.7055,4.7073,4.7094,4.7083,4.6982,4.7051,4.705,4.705,4.7049,4.7049,4.7648,4.7643,4.7599,4.7572,4.7541,4.7512,4.75,4.7458,4.7433,4.7392,4.7357,4.733,4.7283,4.722,4.719,4.7167,4.7145,4.7148,4.7149,4.7151,4.7158,4.7099,4.7158,4.7158,4.7157,4.7157,4.7157,0,4.7725,4.7694,4.7671,4.7627,4.7606,4.7569,4.753,4.7514,4.7492,4.7453,4.7425,4.7391,4.7358,4.7303,4.7266,4.7257,4.7236,4.7249,4.7249,4.7242,4.7179,4.7181,4.7267,4.7267,4.7267,4.7267,4.7267,4.7267,4.7763,4.7753,4.7722,4.7695,4.7662,4.7638,4.7619,4.759,4.7559,4.7524,4.7498,4.7463,4.7417,4.7376,4.7344,4.7328,4.7317,4.7337,4.7315,4.7257,4.7247,4.7237,4.7238,4.7335,4.7335,4.738,4.738,4.738]}]]